owner,sensor,date,latitude,longitude,vertical_datum,mass_concentration_of_oxygen_in_sea_water,qcFlag 
DISL,ioos:station:DISL:DISL:1,2011-03-01T00:00:00Z,30.2513,-88.0778,7.23,8.27,1111122 
DISL,ioos:station:DISL:DISL:1,2011-03-01T00:30:00Z,30.2513,-88.0778,7.26,8.02,1111122 
DISL,ioos:station:DISL:DISL:1,2011-03-01T01:00:00Z,30.2513,-88.0778,7.28,7.98,1111122 
DISL,ioos:station:DISL:DISL:1,2011-03-01T01:30:00Z,30.2513,-88.0778,7.2,7.88,1111122 
DISL,ioos:station:DISL:DISL:1,2011-03-01T02:00:00Z,30.2513,-88.0778,7.13,7.9,1111122 
DISL,ioos:station:DISL:DISL:1,2011-03-01T02:30:00Z,30.2513,-88.0778,7.12,7.9,1111122 
DISL,ioos:station:DISL:DISL:1,2011-03-01T03:00:00Z,30.2513,-88.0778,7.17,7.8,1111122 
DISL,ioos:station:DISL:DISL:1,2011-03-01T03:30:00Z,30.2513,-88.0778,7.21,7.51,1111122 
DISL,ioos:station:DISL:DISL:1,2011-03-01T04:00:00Z,30.2513,-88.0778,7.06,7.59,1111122 
DISL,ioos:station:DISL:DISL:1,2011-03-01T04:30:00Z,30.2513,-88.0778,6.855,7.57,1111122 
DISL,ioos:station:DISL:DISL:1,2011-03-01T05:00:00Z,30.2513,-88.0778,6.89,7.79,1111122 
DISL,ioos:station:DISL:DISL:1,2011-03-01T05:30:00Z,30.2513,-88.0778,6.715,7.77,1111122 
DISL,ioos:station:DISL:DISL:1,2011-03-01T06:00:00Z,30.2513,-88.0778,6.648,7.78,1111122 
DISL,ioos:station:DISL:DISL:1,2011-03-01T06:30:00Z,30.2513,-88.0778,6.464,7.76,1111122 
DISL,ioos:station:DISL:DISL:1,2011-03-01T07:00:00Z,30.2513,-88.0778,6.413,7.73,1111122 
DISL,ioos:station:DISL:DISL:1,2011-03-01T07:30:00Z,30.2513,-88.0778,6.363,7.74,1111122 
DISL,ioos:station:DISL:DISL:1,2011-03-01T08:00:00Z,30.2513,-88.0778,6.074,7.82,1111122 
DISL,ioos:station:DISL:DISL:1,2011-03-01T08:30:00Z,30.2513,-88.0778,6.302,7.8,1111122 
DISL,ioos:station:DISL:DISL:1,2011-03-01T09:00:00Z,30.2513,-88.0778,6.02,7.79,1111122 
DISL,ioos:station:DISL:DISL:1,2011-03-01T09:30:00Z,30.2513,-88.0778,5.856,7.83,1111122 
DISL,ioos:station:DISL:DISL:1,2011-03-01T10:00:00Z,30.2513,-88.0778,5.771,7.79,1111122 
DISL,ioos:station:DISL:DISL:1,2011-03-01T10:30:00Z,30.2513,-88.0778,5.342,7.89,1111122 
DISL,ioos:station:DISL:DISL:1,2011-03-01T11:00:00Z,30.2513,-88.0778,5.195,7.9,1111122 
DISL,ioos:station:DISL:DISL:1,2011-03-01T11:30:00Z,30.2513,-88.0778,5.431,7.97,1111122 
DISL,ioos:station:DISL:DISL:1,2011-03-01T12:00:00Z,30.2513,-88.0778,5.4,7.95,1111122 
DISL,ioos:station:DISL:DISL:1,2011-03-01T12:30:00Z,30.2513,-88.0778,5.246,7.99,1111122 
DISL,ioos:station:DISL:DISL:1,2011-03-01T13:00:00Z,30.2513,-88.0778,5.316,8.08,1111122 
DISL,ioos:station:DISL:DISL:1,2011-03-01T13:30:00Z,30.2513,-88.0778,5.448,8.09,1111122 
DISL,ioos:station:DISL:DISL:1,2011-03-01T14:00:00Z,30.2513,-88.0778,5.347,8.16,1111122 
DISL,ioos:station:DISL:DISL:1,2011-03-01T14:30:00Z,30.2513,-88.0778,5.557,8.18,1111122 
DISL,ioos:station:DISL:DISL:1,2011-03-01T15:00:00Z,30.2513,-88.0778,5.501,8.22,1111122 
DISL,ioos:station:DISL:DISL:1,2011-03-01T15:30:00Z,30.2513,-88.0778,5.394,8.38,1111122 
DISL,ioos:station:DISL:DISL:1,2011-03-01T16:00:00Z,30.2513,-88.0778,5.485,8.44,1111122 
DISL,ioos:station:DISL:DISL:1,2011-03-01T16:30:00Z,30.2513,-88.0778,5.261,8.38,1111122 
DISL,ioos:station:DISL:DISL:1,2011-03-01T17:00:00Z,30.2513,-88.0778,5.482,8.49,1111122 
DISL,ioos:station:DISL:DISL:1,2011-03-01T17:30:00Z,30.2513,-88.0778,5.389,8.35,1111122 
DISL,ioos:station:DISL:DISL:1,2011-03-01T18:00:00Z,30.2513,-88.0778,5.58,8.38,1111122 
DISL,ioos:station:DISL:DISL:1,2011-03-01T18:30:00Z,30.2513,-88.0778,5.716,8.53,1111122 
DISL,ioos:station:DISL:DISL:1,2011-03-01T19:00:00Z,30.2513,-88.0778,5.742,8.44,1111122 
DISL,ioos:station:DISL:DISL:1,2011-03-01T19:30:00Z,30.2513,-88.0778,5.862,8.74,1111122 
DISL,ioos:station:DISL:DISL:1,2011-03-01T20:00:00Z,30.2513,-88.0778,5.891,8.96,1111122 
DISL,ioos:station:DISL:DISL:1,2011-03-01T20:30:00Z,30.2513,-88.0778,5.978,8.83,1111122 
DISL,ioos:station:DISL:DISL:1,2011-03-01T21:00:00Z,30.2513,-88.0778,6.066,8.84,1111122 
DISL,ioos:station:DISL:DISL:1,2011-03-01T21:30:00Z,30.2513,-88.0778,6.259,8.89,1111122 
DISL,ioos:station:DISL:DISL:1,2011-03-01T22:00:00Z,30.2513,-88.0778,6.292,9.01,1111122 
DISL,ioos:station:DISL:DISL:1,2011-03-01T22:30:00Z,30.2513,-88.0778,6.353,8.43,1111122 
DISL,ioos:station:DISL:DISL:1,2011-03-01T23:00:00Z,30.2513,-88.0778,6.458,8.38,1111122 
DISL,ioos:station:DISL:DISL:1,2011-03-01T23:30:00Z,30.2513,-88.0778,6.567,8.41,1111122 
DISL,ioos:station:DISL:DISL:1,2011-03-02T00:00:00Z,30.2513,-88.0778,6.617,8.44,1111122 
DISL,ioos:station:DISL:DISL:1,2011-03-02T00:30:00Z,30.2513,-88.0778,6.719,8.59,1111122 
DISL,ioos:station:DISL:DISL:1,2011-03-02T01:00:00Z,30.2513,-88.0778,6.707,8.57,1111122 
DISL,ioos:station:DISL:DISL:1,2011-03-02T01:30:00Z,30.2513,-88.0778,6.84,8.48,1111122 
DISL,ioos:station:DISL:DISL:1,2011-03-02T02:00:00Z,30.2513,-88.0778,6.902,8.41,1111122 
DISL,ioos:station:DISL:DISL:1,2011-03-02T02:30:00Z,30.2513,-88.0778,6.932,8.33,1111122 
DISL,ioos:station:DISL:DISL:1,2011-03-02T03:00:00Z,30.2513,-88.0778,6.995,8.42,1111122 
DISL,ioos:station:DISL:DISL:1,2011-03-02T03:30:00Z,30.2513,-88.0778,6.899,8.54,1111122 
DISL,ioos:station:DISL:DISL:1,2011-03-02T04:00:00Z,30.2513,-88.0778,6.959,8.59,1111122 
DISL,ioos:station:DISL:DISL:1,2011-03-02T04:30:00Z,30.2513,-88.0778,6.915,8.58,1111122 
DISL,ioos:station:DISL:DISL:1,2011-03-02T05:00:00Z,30.2513,-88.0778,6.827,8.58,1111122 
DISL,ioos:station:DISL:DISL:1,2011-03-02T05:30:00Z,30.2513,-88.0778,6.788,8.58,1111122 
DISL,ioos:station:DISL:DISL:1,2011-03-02T06:00:00Z,30.2513,-88.0778,6.709,8.56,1111122 
DISL,ioos:station:DISL:DISL:1,2011-03-02T06:30:00Z,30.2513,-88.0778,6.605,8.51,1111122 
DISL,ioos:station:DISL:DISL:1,2011-03-02T07:00:00Z,30.2513,-88.0778,6.48,8.4,1111122 
DISL,ioos:station:DISL:DISL:1,2011-03-02T07:30:00Z,30.2513,-88.0778,6.474,8.32,1111122 
DISL,ioos:station:DISL:DISL:1,2011-03-02T08:00:00Z,30.2513,-88.0778,6.328,8.34,1111122 
DISL,ioos:station:DISL:DISL:1,2011-03-02T08:30:00Z,30.2513,-88.0778,6.264,8.35,1111122 
DISL,ioos:station:DISL:DISL:1,2011-03-02T09:00:00Z,30.2513,-88.0778,6.169,8.32,1111122 
DISL,ioos:station:DISL:DISL:1,2011-03-02T09:30:00Z,30.2513,-88.0778,6.25,8.35,1111122 
DISL,ioos:station:DISL:DISL:1,2011-03-02T10:00:00Z,30.2513,-88.0778,6.105,8.35,1111122 
DISL,ioos:station:DISL:DISL:1,2011-03-02T10:30:00Z,30.2513,-88.0778,6.168,8.33,1111122 
DISL,ioos:station:DISL:DISL:1,2011-03-02T11:00:00Z,30.2513,-88.0778,5.638,8.34,1111122 
DISL,ioos:station:DISL:DISL:1,2011-03-02T11:30:00Z,30.2513,-88.0778,5.855,8.43,1111122 
DISL,ioos:station:DISL:DISL:1,2011-03-02T12:00:00Z,30.2513,-88.0778,5.86,8.42,1111122 
DISL,ioos:station:DISL:DISL:1,2011-03-02T12:30:00Z,30.2513,-88.0778,5.737,8.39,1111122 
DISL,ioos:station:DISL:DISL:1,2011-03-02T13:00:00Z,30.2513,-88.0778,5.55,8.37,1111122 
DISL,ioos:station:DISL:DISL:1,2011-03-02T13:30:00Z,30.2513,-88.0778,5.693,8.36,1111122 
DISL,ioos:station:DISL:DISL:1,2011-03-02T14:00:00Z,30.2513,-88.0778,5.709,8.37,1111122 
DISL,ioos:station:DISL:DISL:1,2011-03-02T14:30:00Z,30.2513,-88.0778,5.719,8.42,1111122 
DISL,ioos:station:DISL:DISL:1,2011-03-02T15:00:00Z,30.2513,-88.0778,5.74,8.48,1111122 
DISL,ioos:station:DISL:DISL:1,2011-03-02T15:30:00Z,30.2513,-88.0778,5.772,8.41,1111122 
DISL,ioos:station:DISL:DISL:1,2011-03-02T16:00:00Z,30.2513,-88.0778,5.725,8.39,1111122 
DISL,ioos:station:DISL:DISL:1,2011-03-02T16:30:00Z,30.2513,-88.0778,5.791,8.38,1111122 
DISL,ioos:station:DISL:DISL:1,2011-03-02T17:00:00Z,30.2513,-88.0778,5.79,8.42,1111122 
DISL,ioos:station:DISL:DISL:1,2011-03-02T17:30:00Z,30.2513,-88.0778,5.807,8.44,1111122 
DISL,ioos:station:DISL:DISL:1,2011-03-02T18:00:00Z,30.2513,-88.0778,5.777,8.46,1111122 
DISL,ioos:station:DISL:DISL:1,2011-03-02T18:30:00Z,30.2513,-88.0778,5.821,8.38,1111122 
DISL,ioos:station:DISL:DISL:1,2011-03-02T19:00:00Z,30.2513,-88.0778,5.801,8.45,1111122 
DISL,ioos:station:DISL:DISL:1,2011-03-02T19:30:00Z,30.2513,-88.0778,5.853,8.48,1111122 
DISL,ioos:station:DISL:DISL:1,2011-03-02T20:00:00Z,30.2513,-88.0778,5.866,8.54,1111122 
DISL,ioos:station:DISL:DISL:1,2011-03-02T20:30:00Z,30.2513,-88.0778,5.908,8.62,1111122 
DISL,ioos:station:DISL:DISL:1,2011-03-02T21:00:00Z,30.2513,-88.0778,5.934,8.7,1111122 
DISL,ioos:station:DISL:DISL:1,2011-03-02T21:30:00Z,30.2513,-88.0778,5.939,8.67,1111122 
DISL,ioos:station:DISL:DISL:1,2011-03-02T22:00:00Z,30.2513,-88.0778,6.025,8.66,1111122 
DISL,ioos:station:DISL:DISL:1,2011-03-02T22:30:00Z,30.2513,-88.0778,6.066,8.57,1111122 
DISL,ioos:station:DISL:DISL:1,2011-03-02T23:00:00Z,30.2513,-88.0778,6.103,8.68,1111122 
DISL,ioos:station:DISL:DISL:1,2011-03-02T23:30:00Z,30.2513,-88.0778,6.138,8.49,1111122 
DISL,ioos:station:DISL:DISL:1,2011-03-03T00:00:00Z,30.2513,-88.0778,6.192,7.94,1111122 
DISL,ioos:station:DISL:DISL:1,2011-03-03T00:30:00Z,30.2513,-88.0778,6.25,7.75,1111122 
DISL,ioos:station:DISL:DISL:1,2011-03-03T01:00:00Z,30.2513,-88.0778,6.307,7.64,1111122 
DISL,ioos:station:DISL:DISL:1,2011-03-03T01:30:00Z,30.2513,-88.0778,6.339,7.72,1111122 
DISL,ioos:station:DISL:DISL:1,2011-03-03T02:00:00Z,30.2513,-88.0778,6.352,7.83,1111122 
DISL,ioos:station:DISL:DISL:1,2011-03-03T02:30:00Z,30.2513,-88.0778,6.419,7.76,1111122 
DISL,ioos:station:DISL:DISL:1,2011-03-03T03:00:00Z,30.2513,-88.0778,6.414,7.55,1111122 
DISL,ioos:station:DISL:DISL:1,2011-03-03T03:30:00Z,30.2513,-88.0778,6.477,7.59,1111122 
DISL,ioos:station:DISL:DISL:1,2011-03-03T04:00:00Z,30.2513,-88.0778,6.534,7.65,1111122 
DISL,ioos:station:DISL:DISL:1,2011-03-03T04:30:00Z,30.2513,-88.0778,6.591,8.3,1111122 
DISL,ioos:station:DISL:DISL:1,2011-03-03T05:00:00Z,30.2513,-88.0778,6.582,8.11,1111122 
DISL,ioos:station:DISL:DISL:1,2011-03-03T05:30:00Z,30.2513,-88.0778,6.598,8.16,1111122 
DISL,ioos:station:DISL:DISL:1,2011-03-03T06:00:00Z,30.2513,-88.0778,6.553,8.08,1111122 
DISL,ioos:station:DISL:DISL:1,2011-03-03T06:30:00Z,30.2513,-88.0778,6.472,8.34,1111122 
DISL,ioos:station:DISL:DISL:1,2011-03-03T07:00:00Z,30.2513,-88.0778,6.426,8.39,1111122 
DISL,ioos:station:DISL:DISL:1,2011-03-03T07:30:00Z,30.2513,-88.0778,6.362,8.32,1111122 
DISL,ioos:station:DISL:DISL:1,2011-03-03T08:00:00Z,30.2513,-88.0778,6.308,8.06,1111122 
DISL,ioos:station:DISL:DISL:1,2011-03-03T08:30:00Z,30.2513,-88.0778,6.324,8.6,1111122 
DISL,ioos:station:DISL:DISL:1,2011-03-03T09:00:00Z,30.2513,-88.0778,6.424,8.69,1111122 
DISL,ioos:station:DISL:DISL:1,2011-03-03T09:30:00Z,30.2513,-88.0778,6.387,8.63,1111122 
DISL,ioos:station:DISL:DISL:1,2011-03-03T10:00:00Z,30.2513,-88.0778,6.226,8.54,1111122 
DISL,ioos:station:DISL:DISL:1,2011-03-03T10:30:00Z,30.2513,-88.0778,6.193,8.48,1111122 
DISL,ioos:station:DISL:DISL:1,2011-03-03T11:00:00Z,30.2513,-88.0778,6.128,8.46,1111122 
DISL,ioos:station:DISL:DISL:1,2011-03-03T11:30:00Z,30.2513,-88.0778,6.145,8.42,1111122 
DISL,ioos:station:DISL:DISL:1,2011-03-03T12:00:00Z,30.2513,-88.0778,6.087,8.4,1111122 
DISL,ioos:station:DISL:DISL:1,2011-03-03T12:30:00Z,30.2513,-88.0778,6.188,8.34,1111122 
DISL,ioos:station:DISL:DISL:1,2011-03-03T13:00:00Z,30.2513,-88.0778,6.27,8.34,1111122 
DISL,ioos:station:DISL:DISL:1,2011-03-03T13:30:00Z,30.2513,-88.0778,6.192,8.37,1111122 
DISL,ioos:station:DISL:DISL:1,2011-03-03T14:00:00Z,30.2513,-88.0778,6.172,8.02,1111122 
DISL,ioos:station:DISL:DISL:1,2011-03-03T14:30:00Z,30.2513,-88.0778,6.39,7.66,1111122 
DISL,ioos:station:DISL:DISL:1,2011-03-03T15:00:00Z,30.2513,-88.0778,6.227,7.66,1111122 
DISL,ioos:station:DISL:DISL:1,2011-03-03T15:30:00Z,30.2513,-88.0778,6.254,7.79,1111122 
DISL,ioos:station:DISL:DISL:1,2011-03-03T16:00:00Z,30.2513,-88.0778,6.281,7.99,1111122 
DISL,ioos:station:DISL:DISL:1,2011-03-03T16:30:00Z,30.2513,-88.0778,6.247,8.15,1111122 
DISL,ioos:station:DISL:DISL:1,2011-03-03T17:00:00Z,30.2513,-88.0778,6.381,8.27,1111122 
DISL,ioos:station:DISL:DISL:1,2011-03-03T17:30:00Z,30.2513,-88.0778,6.472,8.32,1111122 
DISL,ioos:station:DISL:DISL:1,2011-03-03T18:00:00Z,30.2513,-88.0778,6.329,8.37,1111122 
DISL,ioos:station:DISL:DISL:1,2011-03-03T18:30:00Z,30.2513,-88.0778,6.443,8.34,1111122 
DISL,ioos:station:DISL:DISL:1,2011-03-03T19:00:00Z,30.2513,-88.0778,6.482,8.31,1111122 
DISL,ioos:station:DISL:DISL:1,2011-03-03T19:30:00Z,30.2513,-88.0778,6.336,8.01,1111122 
DISL,ioos:station:DISL:DISL:1,2011-03-03T20:00:00Z,30.2513,-88.0778,6.536,8.05,1111122 
DISL,ioos:station:DISL:DISL:1,2011-03-03T20:30:00Z,30.2513,-88.0778,6.54,8.14,1111122 
DISL,ioos:station:DISL:DISL:1,2011-03-03T21:00:00Z,30.2513,-88.0778,6.617,8.25,1111122 
DISL,ioos:station:DISL:DISL:1,2011-03-03T21:30:00Z,30.2513,-88.0778,6.601,8.38,1111122 
DISL,ioos:station:DISL:DISL:1,2011-03-03T22:00:00Z,30.2513,-88.0778,6.419,8.41,1111122 
DISL,ioos:station:DISL:DISL:1,2011-03-03T22:30:00Z,30.2513,-88.0778,6.633,8.46,1111122 
DISL,ioos:station:DISL:DISL:1,2011-03-03T23:00:00Z,30.2513,-88.0778,6.628,8.34,1111122 
DISL,ioos:station:DISL:DISL:1,2011-03-03T23:30:00Z,30.2513,-88.0778,6.617,8.32,1111122 
DISL,ioos:station:DISL:DISL:1,2011-03-04T00:00:00Z,30.2513,-88.0778,6.715,8.21,1111122 
DISL,ioos:station:DISL:DISL:1,2011-03-04T00:30:00Z,30.2513,-88.0778,6.78,8.27,1111122 
DISL,ioos:station:DISL:DISL:1,2011-03-04T01:00:00Z,30.2513,-88.0778,6.703,8.25,1111122 
DISL,ioos:station:DISL:DISL:1,2011-03-04T01:30:00Z,30.2513,-88.0778,6.76,8.25,1111122 
DISL,ioos:station:DISL:DISL:1,2011-03-04T02:00:00Z,30.2513,-88.0778,6.789,8.25,1111122 
DISL,ioos:station:DISL:DISL:1,2011-03-04T02:30:00Z,30.2513,-88.0778,6.79,8.16,1111122 
DISL,ioos:station:DISL:DISL:1,2011-03-04T03:00:00Z,30.2513,-88.0778,6.806,8.18,1111122 
DISL,ioos:station:DISL:DISL:1,2011-03-04T03:30:00Z,30.2513,-88.0778,6.797,8.25,1111122 
DISL,ioos:station:DISL:DISL:1,2011-03-04T04:00:00Z,30.2513,-88.0778,6.868,8.32,1111122 
DISL,ioos:station:DISL:DISL:1,2011-03-04T04:30:00Z,30.2513,-88.0778,6.798,8.4,1111122 
DISL,ioos:station:DISL:DISL:1,2011-03-04T05:00:00Z,30.2513,-88.0778,6.79,8.38,1111122 
DISL,ioos:station:DISL:DISL:1,2011-03-04T05:30:00Z,30.2513,-88.0778,6.639,8.37,1111122 
DISL,ioos:station:DISL:DISL:1,2011-03-04T06:00:00Z,30.2513,-88.0778,6.723,8.28,1111122 
DISL,ioos:station:DISL:DISL:1,2011-03-04T06:30:00Z,30.2513,-88.0778,6.684,8.2,1111122 
DISL,ioos:station:DISL:DISL:1,2011-03-04T07:00:00Z,30.2513,-88.0778,6.638,8.29,1111122 
DISL,ioos:station:DISL:DISL:1,2011-03-04T07:30:00Z,30.2513,-88.0778,6.627,8.35,1111122 
DISL,ioos:station:DISL:DISL:1,2011-03-04T08:00:00Z,30.2513,-88.0778,6.593,8.34,1111122 
DISL,ioos:station:DISL:DISL:1,2011-03-04T08:30:00Z,30.2513,-88.0778,6.626,8.31,1111122 
DISL,ioos:station:DISL:DISL:1,2011-03-04T09:00:00Z,30.2513,-88.0778,6.45,8.1,1111122 
DISL,ioos:station:DISL:DISL:1,2011-03-04T09:30:00Z,30.2513,-88.0778,6.385,8.07,1111122 
DISL,ioos:station:DISL:DISL:1,2011-03-04T10:00:00Z,30.2513,-88.0778,5.841,8.08,1111122 
DISL,ioos:station:DISL:DISL:1,2011-03-04T10:30:00Z,30.2513,-88.0778,6.073,8.09,1111122 
DISL,ioos:station:DISL:DISL:1,2011-03-04T11:00:00Z,30.2513,-88.0778,6.314,8.06,1111122 
DISL,ioos:station:DISL:DISL:1,2011-03-04T11:30:00Z,30.2513,-88.0778,6.338,8.1,1111122 
DISL,ioos:station:DISL:DISL:1,2011-03-04T12:00:00Z,30.2513,-88.0778,6.244,8.13,1111122 
DISL,ioos:station:DISL:DISL:1,2011-03-04T12:30:00Z,30.2513,-88.0778,6.177,8.12,1111122 
DISL,ioos:station:DISL:DISL:1,2011-03-04T13:00:00Z,30.2513,-88.0778,6.287,8.09,1111122 
DISL,ioos:station:DISL:DISL:1,2011-03-04T13:30:00Z,30.2513,-88.0778,6.343,8.13,1111122 
DISL,ioos:station:DISL:DISL:1,2011-03-04T14:00:00Z,30.2513,-88.0778,6.412,8.16,1111122 
DISL,ioos:station:DISL:DISL:1,2011-03-04T14:30:00Z,30.2513,-88.0778,6.468,8.11,1111122 
DISL,ioos:station:DISL:DISL:1,2011-03-04T15:00:00Z,30.2513,-88.0778,6.471,8.13,1111122 
DISL,ioos:station:DISL:DISL:1,2011-03-04T15:30:00Z,30.2513,-88.0778,6.399,8.11,1111122 
DISL,ioos:station:DISL:DISL:1,2011-03-04T16:00:00Z,30.2513,-88.0778,6.301,7.97,1111122 
DISL,ioos:station:DISL:DISL:1,2011-03-04T16:30:00Z,30.2513,-88.0778,6.385,7.9,1111122 
DISL,ioos:station:DISL:DISL:1,2011-03-04T17:00:00Z,30.2513,-88.0778,6.658,7.96,1111122 
DISL,ioos:station:DISL:DISL:1,2011-03-04T17:30:00Z,30.2513,-88.0778,6.233,8.0,1111122 
DISL,ioos:station:DISL:DISL:1,2011-03-04T18:00:00Z,30.2513,-88.0778,6.575,8.06,1111122 
DISL,ioos:station:DISL:DISL:1,2011-03-04T18:30:00Z,30.2513,-88.0778,6.381,8.1,1111122 
DISL,ioos:station:DISL:DISL:1,2011-03-04T19:00:00Z,30.2513,-88.0778,6.658,8.12,1111122 
DISL,ioos:station:DISL:DISL:1,2011-03-04T19:30:00Z,30.2513,-88.0778,6.654,8.22,1111122 
DISL,ioos:station:DISL:DISL:1,2011-03-04T20:00:00Z,30.2513,-88.0778,6.743,8.28,1111122 
DISL,ioos:station:DISL:DISL:1,2011-03-04T20:30:00Z,30.2513,-88.0778,6.587,8.28,1111122 
DISL,ioos:station:DISL:DISL:1,2011-03-04T21:00:00Z,30.2513,-88.0778,6.722,8.26,1111122 
DISL,ioos:station:DISL:DISL:1,2011-03-04T21:30:00Z,30.2513,-88.0778,6.822,8.2,1111122 
DISL,ioos:station:DISL:DISL:1,2011-03-04T22:00:00Z,30.2513,-88.0778,7.01,8.13,1111122 
DISL,ioos:station:DISL:DISL:1,2011-03-04T22:30:00Z,30.2513,-88.0778,6.913,8.17,1111122 
DISL,ioos:station:DISL:DISL:1,2011-03-04T23:00:00Z,30.2513,-88.0778,6.9,8.21,1111122 
DISL,ioos:station:DISL:DISL:1,2011-03-04T23:30:00Z,30.2513,-88.0778,6.937,8.2,1111122 
DISL,ioos:station:DISL:DISL:1,2011-03-05T00:00:00Z,30.2513,-88.0778,7.02,8.18,1111122 
DISL,ioos:station:DISL:DISL:1,2011-03-05T00:30:00Z,30.2513,-88.0778,7.13,8.17,1111122 
DISL,ioos:station:DISL:DISL:1,2011-03-05T01:00:00Z,30.2513,-88.0778,7.13,8.2,1111122 
DISL,ioos:station:DISL:DISL:1,2011-03-05T01:30:00Z,30.2513,-88.0778,7.42,8.17,1111122 
DISL,ioos:station:DISL:DISL:1,2011-03-05T02:00:00Z,30.2513,-88.0778,7.25,8.17,1111122 
DISL,ioos:station:DISL:DISL:1,2011-03-05T02:30:00Z,30.2513,-88.0778,7.27,8.15,1111122 
DISL,ioos:station:DISL:DISL:1,2011-03-05T03:00:00Z,30.2513,-88.0778,7.23,8.08,1111122 
DISL,ioos:station:DISL:DISL:1,2011-03-05T03:30:00Z,30.2513,-88.0778,7.33,8.1,1111122 
DISL,ioos:station:DISL:DISL:1,2011-03-05T04:00:00Z,30.2513,-88.0778,7.46,8.12,1111122 
DISL,ioos:station:DISL:DISL:1,2011-03-05T04:30:00Z,30.2513,-88.0778,7.53,8.09,1111122 
DISL,ioos:station:DISL:DISL:1,2011-03-05T05:00:00Z,30.2513,-88.0778,7.39,8.06,1111122 
DISL,ioos:station:DISL:DISL:1,2011-03-05T05:30:00Z,30.2513,-88.0778,7.35,8.13,1111122 
DISL,ioos:station:DISL:DISL:1,2011-03-05T06:00:00Z,30.2513,-88.0778,7.4,7.91,1111122 
DISL,ioos:station:DISL:DISL:1,2011-03-05T06:30:00Z,30.2513,-88.0778,7.3,7.95,1111122 
DISL,ioos:station:DISL:DISL:1,2011-03-05T07:00:00Z,30.2513,-88.0778,7.35,7.88,1111122 
DISL,ioos:station:DISL:DISL:1,2011-03-05T07:30:00Z,30.2513,-88.0778,7.08,8.05,1111122 
DISL,ioos:station:DISL:DISL:1,2011-03-05T08:00:00Z,30.2513,-88.0778,7.01,8.08,1111122 
DISL,ioos:station:DISL:DISL:1,2011-03-05T08:30:00Z,30.2513,-88.0778,7.08,8.04,1111122 
DISL,ioos:station:DISL:DISL:1,2011-03-05T09:00:00Z,30.2513,-88.0778,7.48,7.92,1111122 
DISL,ioos:station:DISL:DISL:1,2011-03-05T09:30:00Z,30.2513,-88.0778,7.23,7.95,1111122 
DISL,ioos:station:DISL:DISL:1,2011-03-05T10:00:00Z,30.2513,-88.0778,6.988,8.01,1111122 
DISL,ioos:station:DISL:DISL:1,2011-03-05T10:30:00Z,30.2513,-88.0778,7.08,8.06,1111122 
DISL,ioos:station:DISL:DISL:1,2011-03-05T11:00:00Z,30.2513,-88.0778,6.979,8.07,1111122 
DISL,ioos:station:DISL:DISL:1,2011-03-05T11:30:00Z,30.2513,-88.0778,6.953,8.05,1111122 
DISL,ioos:station:DISL:DISL:1,2011-03-05T12:00:00Z,30.2513,-88.0778,7.02,8.06,1111122 
DISL,ioos:station:DISL:DISL:1,2011-03-05T12:30:00Z,30.2513,-88.0778,6.938,8.07,1111122 
DISL,ioos:station:DISL:DISL:1,2011-03-05T13:00:00Z,30.2513,-88.0778,7.02,8.06,1111122 
DISL,ioos:station:DISL:DISL:1,2011-03-05T13:30:00Z,30.2513,-88.0778,6.978,8.04,1111122 
DISL,ioos:station:DISL:DISL:1,2011-03-05T14:00:00Z,30.2513,-88.0778,6.876,8.0,1111122 
DISL,ioos:station:DISL:DISL:1,2011-03-05T14:30:00Z,30.2513,-88.0778,6.867,8.0,1111122 
DISL,ioos:station:DISL:DISL:1,2011-03-05T15:00:00Z,30.2513,-88.0778,6.857,8.04,1111122 
DISL,ioos:station:DISL:DISL:1,2011-03-05T15:30:00Z,30.2513,-88.0778,6.942,8.04,1111122 
DISL,ioos:station:DISL:DISL:1,2011-03-05T16:00:00Z,30.2513,-88.0778,6.938,8.01,1111122 
DISL,ioos:station:DISL:DISL:1,2011-03-05T16:30:00Z,30.2513,-88.0778,7.03,8.05,1111122 
DISL,ioos:station:DISL:DISL:1,2011-03-05T17:00:00Z,30.2513,-88.0778,6.996,8.03,1111122 
DISL,ioos:station:DISL:DISL:1,2011-03-05T17:30:00Z,30.2513,-88.0778,6.988,8.02,1111122 
DISL,ioos:station:DISL:DISL:1,2011-03-05T18:00:00Z,30.2513,-88.0778,6.902,7.97,1111122 
DISL,ioos:station:DISL:DISL:1,2011-03-05T18:30:00Z,30.2513,-88.0778,7.0,7.97,1111122 
DISL,ioos:station:DISL:DISL:1,2011-03-05T19:00:00Z,30.2513,-88.0778,6.929,7.96,1111122 
DISL,ioos:station:DISL:DISL:1,2011-03-05T19:30:00Z,30.2513,-88.0778,6.84,8.1,1111122 
DISL,ioos:station:DISL:DISL:1,2011-03-05T20:00:00Z,30.2513,-88.0778,6.964,8.15,1111122 
DISL,ioos:station:DISL:DISL:1,2011-03-05T20:30:00Z,30.2513,-88.0778,6.964,8.08,1111122 
DISL,ioos:station:DISL:DISL:1,2011-03-05T21:00:00Z,30.2513,-88.0778,6.92,8.14,1111122 
DISL,ioos:station:DISL:DISL:1,2011-03-05T21:30:00Z,30.2513,-88.0778,6.942,8.06,1111122 
DISL,ioos:station:DISL:DISL:1,2011-03-05T22:00:00Z,30.2513,-88.0778,7.0,8.08,1111122 
DISL,ioos:station:DISL:DISL:1,2011-03-05T22:30:00Z,30.2513,-88.0778,6.958,8.08,1111122 
DISL,ioos:station:DISL:DISL:1,2011-03-05T23:00:00Z,30.2513,-88.0778,7.07,8.1,1111122 
DISL,ioos:station:DISL:DISL:1,2011-03-05T23:30:00Z,30.2513,-88.0778,6.921,7.86,1111122 
DISL,ioos:station:DISL:DISL:1,2011-03-06T00:00:00Z,30.2513,-88.0778,6.788,7.95,1111122 
DISL,ioos:station:DISL:DISL:1,2011-03-06T00:30:00Z,30.2513,-88.0778,6.837,7.94,1111122 
DISL,ioos:station:DISL:DISL:1,2011-03-06T01:00:00Z,30.2513,-88.0778,6.987,7.79,1111122 
DISL,ioos:station:DISL:DISL:1,2011-03-06T01:30:00Z,30.2513,-88.0778,7.04,7.75,1111122 
DISL,ioos:station:DISL:DISL:1,2011-03-06T02:00:00Z,30.2513,-88.0778,7.35,8.08,1111122 
DISL,ioos:station:DISL:DISL:1,2011-03-06T02:30:00Z,30.2513,-88.0778,7.32,8.08,1111122 
DISL,ioos:station:DISL:DISL:1,2011-03-06T03:00:00Z,30.2513,-88.0778,7.17,8.04,1111122 
DISL,ioos:station:DISL:DISL:1,2011-03-06T03:30:00Z,30.2513,-88.0778,7.27,8.01,1111122 
DISL,ioos:station:DISL:DISL:1,2011-03-06T04:00:00Z,30.2513,-88.0778,7.47,8.02,1111122 
DISL,ioos:station:DISL:DISL:1,2011-03-06T04:30:00Z,30.2513,-88.0778,7.19,8.0,1111122 
DISL,ioos:station:DISL:DISL:1,2011-03-06T05:00:00Z,30.2513,-88.0778,7.11,7.98,1111122 
DISL,ioos:station:DISL:DISL:1,2011-03-06T05:30:00Z,30.2513,-88.0778,7.15,7.97,1111122 
DISL,ioos:station:DISL:DISL:1,2011-03-06T06:00:00Z,30.2513,-88.0778,6.971,7.94,1111122 
DISL,ioos:station:DISL:DISL:1,2011-03-06T06:30:00Z,30.2513,-88.0778,6.9,7.91,1111122 
DISL,ioos:station:DISL:DISL:1,2011-03-06T07:00:00Z,30.2513,-88.0778,6.73,7.89,1111122 
DISL,ioos:station:DISL:DISL:1,2011-03-06T07:30:00Z,30.2513,-88.0778,6.838,7.82,1111122 
DISL,ioos:station:DISL:DISL:1,2011-03-06T08:00:00Z,30.2513,-88.0778,6.716,8.05,1111122 
DISL,ioos:station:DISL:DISL:1,2011-03-06T08:30:00Z,30.2513,-88.0778,6.889,8.04,1111122 
DISL,ioos:station:DISL:DISL:1,2011-03-06T09:00:00Z,30.2513,-88.0778,6.42,7.9,1111122 
DISL,ioos:station:DISL:DISL:1,2011-03-06T09:30:00Z,30.2513,-88.0778,6.586,7.9,1111122 
DISL,ioos:station:DISL:DISL:1,2011-03-06T10:00:00Z,30.2513,-88.0778,6.375,8.27,1111122 
DISL,ioos:station:DISL:DISL:1,2011-03-06T10:30:00Z,30.2513,-88.0778,6.294,8.24,1111122 
DISL,ioos:station:DISL:DISL:1,2011-03-06T11:00:00Z,30.2513,-88.0778,6.38,8.34,1111122 
DISL,ioos:station:DISL:DISL:1,2011-03-06T11:30:00Z,30.2513,-88.0778,6.081,8.31,1111122 
DISL,ioos:station:DISL:DISL:1,2011-03-06T12:00:00Z,30.2513,-88.0778,6.344,8.11,1111122 
DISL,ioos:station:DISL:DISL:1,2011-03-06T12:30:00Z,30.2513,-88.0778,6.355,7.98,1111122 
DISL,ioos:station:DISL:DISL:1,2011-03-06T13:00:00Z,30.2513,-88.0778,6.307,8.2,1111122 
DISL,ioos:station:DISL:DISL:1,2011-03-06T13:30:00Z,30.2513,-88.0778,6.421,8.46,1111122 
DISL,ioos:station:DISL:DISL:1,2011-03-06T14:00:00Z,30.2513,-88.0778,6.2,8.43,1111122 
DISL,ioos:station:DISL:DISL:1,2011-03-06T14:30:00Z,30.2513,-88.0778,6.394,8.46,1111122 
DISL,ioos:station:DISL:DISL:1,2011-03-06T15:00:00Z,30.2513,-88.0778,6.12,8.24,1111122 
DISL,ioos:station:DISL:DISL:1,2011-03-06T15:30:00Z,30.2513,-88.0778,6.218,8.08,1111122 